EN

Hourly Weather Boa Vista

Today, 27 October, Tuesday

Time Temperature Precipitation Wind Pressure Humidity
00:00 +29°C° 0 mm 2 mps 750 mmHg 68%
01:00 +29°C° 0 mm 2 mps 749 mmHg 69%
02:00 +29°C° 0 mm 2 mps 749 mmHg 70%
03:00 +28°C° 0 mm 2 mps 749 mmHg 73%
04:00 +28°C° 0 mm 3 mps 749 mmHg 76%
05:00 +27°C° 0 mm 3 mps 749 mmHg 78%
06:00 +28°C° 0 mm 3 mps 750 mmHg 75%
07:00 +29°C° 0 mm 4 mps 751 mmHg 71%
08:00 +30°C° 0 mm 5 mps 752 mmHg 67%
09:00 +33°C° 0 mm 5 mps 752 mmHg 61%
10:00 +35°C° 0 mm 4 mps 752 mmHg 56%
11:00 +36°C° 0 mm 4 mps 752 mmHg 50%
12:00 +37°C° 0 mm 4 mps 750 mmHg 49%
13:00 +37°C° 0 mm 3 mps 749 mmHg 47%
14:00 +37°C° 0 mm 3 mps 748 mmHg 46%
15:00 +37°C° 0 mm 2 mps 748 mmHg 47%
16:00 +37°C° 0 mm 2 mps 748 mmHg 49%
17:00 +35°C° 0 mm 1 mps 748 mmHg 51%
18:00 +34°C° 0 mm 1 mps 748 mmHg 54%
19:00 +33°C° 0 mm 1 mps 748 mmHg 56%
20:00 +31°C° 0 mm 1 mps 748 mmHg 59%
21:00 +31°C° 0 mm 1 mps 748 mmHg 62%
22:00 +30°C° 0 mm 2 mps 749 mmHg 65%
23:00 +30°C° 0 mm 2 mps 749 mmHg 68%

Tomorrow, 28 October, Wednesday

Time Temperature Precipitation Wind Pressure Humidity
00:00 +29°C° 0 mm 2 mps 749 mmHg 69%
01:00 +29°C° 0 mm 2 mps 748 mmHg 71%
02:00 +28°C° 0 mm 2 mps 748 mmHg 72%
03:00 +28°C° 0 mm 2 mps 748 mmHg 74%
04:00 +28°C° 0 mm 2 mps 748 mmHg 75%
05:00 +27°C° 0 mm 2 mps 748 mmHg 77%
06:00 +29°C° 0 mm 3 mps 749 mmHg 74%
07:00 +30°C° 0 mm 3 mps 750 mmHg 70%
08:00 +32°C° 0 mm 4 mps 750 mmHg 67%
09:00 +33°C° 0 mm 4 mps 750 mmHg 61%
10:00 +35°C° 0 mm 4 mps 750 mmHg 55%
11:00 +36°C° 0 mm 4 mps 750 mmHg 49%
12:00 +37°C° 0 mm 4 mps 749 mmHg 48%
13:00 +37°C° 0 mm 3 mps 748 mmHg 46%
14:00 +38°C° 0 mm 2 mps 747 mmHg 44%
15:00 +37°C° 0 mm 2 mps 747 mmHg 48%
16:00 +36°C° 0 mm 2 mps 747 mmHg 52%
17:00 +34°C° 0 mm 1 mps 747 mmHg 55%
18:00 +33°C° 0 mm 1 mps 748 mmHg 59%
19:00 +32°C° 0 mm 1 mps 748 mmHg 62%
20:00 +31°C° 0 mm 2 mps 748 mmHg 65%
21:00 +31°C° 0 mm 2 mps 748 mmHg 68%
22:00 +30°C° 0 mm 1 mps 749 mmHg 71%
23:00 +29°C° 0 mm 1 mps 749 mmHg 74%

Day after tomorrow, 29 October, Thursday

Time Temperature Precipitation Wind Pressure Humidity
00:00 +29°C° 0 mm 1 mps 748 mmHg 74%
01:00 +29°C° 0 mm 1 mps 748 mmHg 75%
02:00 +29°C° 0 mm 1 mps 747 mmHg 75%
03:00 +28°C° 0 mm 2 mps 748 mmHg 76%
04:00 +28°C° 0 mm 2 mps 748 mmHg 78%
05:00 +28°C° 0 mm 2 mps 748 mmHg 79%
06:00 +29°C° 0 mm 3 mps 749 mmHg 75%
07:00 +30°C° 0 mm 3 mps 750 mmHg 71%
08:00 +32°C° 0 mm 4 mps 751 mmHg 67%
09:00 +33°C° 0.5 mm 4 mps 751 mmHg 64%
10:00 +35°C° 0.5 mm 4 mps 750 mmHg 60%
11:00 +36°C° 0.5 mm 5 mps 750 mmHg 57%
12:00 +36°C° 0.5 mm 4 mps 749 mmHg 54%
13:00 +37°C° 0.5 mm 4 mps 748 mmHg 50%
14:00 +38°C° 0.5 mm 3 mps 748 mmHg 47%
15:00 +37°C° 0 mm 3 mps 748 mmHg 50%
16:00 +37°C° 0 mm 2 mps 748 mmHg 52%
17:00 +36°C° 0 mm 2 mps 748 mmHg 55%
18:00 +34°C° 0.1 mm 1 mps 748 mmHg 59%
19:00 +32°C° 0.1 mm 1 mps 748 mmHg 64%
20:00 +31°C° 0.1 mm 1 mps 748 mmHg 69%
21:00 +30°C° 0.3 mm 1 mps 748 mmHg 71%
22:00 +30°C° 0.3 mm 1 mps 749 mmHg 74%
23:00 +29°C° 0.3 mm 1 mps 749 mmHg 77%

30 October, Friday

Time Temperature Precipitation Wind Pressure Humidity
00:00 +29°C° 0 mm 1 mps 749 mmHg 79%
01:00 +28°C° 0 mm 1 mps 749 mmHg 81%
02:00 +26°C° 0 mm 0 mps 748 mmHg 84%
03:00 +28°C° 0 mm 1 mps 749 mmHg 84%
04:00 +28°C° 0 mm 1 mps 749 mmHg 84%
05:00 +27°C° 0 mm 1 mps 749 mmHg 84%
06:00 +28°C° 0.3 mm 2 mps 750 mmHg 80%
07:00 +29°C° 0.3 mm 3 mps 751 mmHg 77%
08:00 +30°C° 0.3 mm 4 mps 752 mmHg 74%
09:00 +32°C° 1.5 mm 4 mps 752 mmHg 71%
10:00 +33°C° 1.5 mm 4 mps 752 mmHg 68%
11:00 +34°C° 1.5 mm 4 mps 752 mmHg 65%
12:00 +34°C° 0.7 mm 3 mps 751 mmHg 64%
13:00 +34°C° 0.7 mm 3 mps 750 mmHg 63%
14:00 +35°C° 0.7 mm 2 mps 749 mmHg 62%
15:00 +34°C° 0 mm 2 mps 749 mmHg 64%
16:00 +32°C° 0 mm 2 mps 748 mmHg 67%
17:00 +32°C° 0 mm 2 mps 748 mmHg 70%
18:00 +31°C° 0 mm 1 mps 749 mmHg 74%
19:00 +29°C° 0 mm 1 mps 749 mmHg 78%
20:00 +26°C° 0 mm 0 mps 750 mmHg 81%
21:00 +28°C° 0 mm 1 mps 750 mmHg 81%
22:00 +28°C° 0 mm 1 mps 750 mmHg 81%
23:00 +28°C° 0 mm 1 mps 750 mmHg 81%

31 October, Saturday

Time Temperature Precipitation Wind Pressure Humidity
00:00 +28°C° 0 mm 1 mps 750 mmHg 82%
01:00 +27°C° 0 mm 1 mps 750 mmHg 83%
02:00 +27°C° 0 mm 1 mps 749 mmHg 84%
03:00 +27°C° 0.1 mm 1 mps 750 mmHg 85%
04:00 +27°C° 0.1 mm 1 mps 750 mmHg 86%
05:00 +26°C° 0.1 mm 1 mps 750 mmHg 87%
06:00 +28°C° 0.4 mm 2 mps 751 mmHg 83%
07:00 +29°C° 0.4 mm 2 mps 752 mmHg 79%
08:00 +30°C° 0.4 mm 3 mps 752 mmHg 74%
09:00 +31°C° 1.7 mm 3 mps 752 mmHg 71%
10:00 +33°C° 1.7 mm 3 mps 752 mmHg 67%
11:00 +34°C° 1.7 mm 3 mps 751 mmHg 64%
12:00 +35°C° 0.5 mm 2 mps 751 mmHg 62%
13:00 +35°C° 0.5 mm 2 mps 750 mmHg 60%
14:00 +35°C° 0.5 mm 2 mps 749 mmHg 57%
15:00 +35°C° 0.3 mm 2 mps 749 mmHg 60%
16:00 +33°C° 0.3 mm 1 mps 749 mmHg 63%
17:00 +33°C° 0.3 mm 1 mps 748 mmHg 66%
18:00 +31°C° 0.3 mm 2 mps 749 mmHg 72%
19:00 +30°C° 0.3 mm 2 mps 750 mmHg 78%
20:00 +28°C° 0.3 mm 3 mps 750 mmHg 84%
21:00 +28°C° 0.7 mm 2 mps 751 mmHg 86%
22:00 +27°C° 0.7 mm 2 mps 751 mmHg 88%
23:00 +27°C° 0.7 mm 2 mps 752 mmHg 89%

1 November, Sunday

Time Temperature Precipitation Wind Pressure Humidity
00:00 +27°C° 0.5 mm 2 mps 751 mmHg 91%
01:00 +26°C° 0.5 mm 2 mps 751 mmHg 92%
02:00 +26°C° 0.5 mm 2 mps 751 mmHg 93%
03:00 +26°C° 0.7 mm 2 mps 751 mmHg 94%
04:00 +26°C° 0.7 mm 1 mps 751 mmHg 95%
05:00 +25°C° 0.7 mm 1 mps 751 mmHg 96%
06:00 +26°C° 1.3 mm 1 mps 752 mmHg 93%
07:00 +27°C° 1.3 mm 1 mps 753 mmHg 90%
08:00 +27°C° 1.3 mm 2 mps 753 mmHg 88%
09:00 +28°C° 1.4 mm 2 mps 753 mmHg 84%
10:00 +29°C° 1.4 mm 2 mps 753 mmHg 79%
11:00 +30°C° 1.4 mm 2 mps 753 mmHg 75%
12:00 +31°C° 2.4 mm 2 mps 752 mmHg 75%
13:00 +31°C° 2.4 mm 2 mps 750 mmHg 74%
14:00 +31°C° 2.4 mm 1 mps 749 mmHg 74%
15:00 +31°C° 0.9 mm 1 mps 749 mmHg 75%
16:00 +30°C° 0.9 mm 1 mps 749 mmHg 77%
17:00 +30°C° 0.9 mm 1 mps 749 mmHg 79%
18:00 +29°C° 0.8 mm 2 mps 750 mmHg 82%
19:00 +28°C° 0.8 mm 2 mps 750 mmHg 86%
20:00 +27°C° 0.8 mm 3 mps 751 mmHg 89%
21:00 +26°C° 1.2 mm 3 mps 751 mmHg 91%
22:00 +26°C° 1.2 mm 3 mps 752 mmHg 92%
23:00 +26°C° 1.2 mm 3 mps 752 mmHg 94%
Show more